Location: De Forest
(43.2480°N, 89.3440°W)
Time: 20:49:11
(UTC-05:00)

Tiangong 2 - Pass Details

Date: 28 May 2019
Orbit: 376 x 389 km, 42.8° (Epoch: 17 June)

Event Time Altitude Azimuth Distance (km) Brightness Sun altitude
Rises 22:07:04 0° 278° (W) 2,239 5.7 -14.6°
Reaches altitude 10° 22:09:16 10° 267° (W) 1,384 4.4 -14.9°
Maximum altitude 22:12:02 29° 204° (SSW) 716 2.2 -15.2°
Enters shadow 22:12:26 28° 188° (S) 735 2.1 -15.2°
